Location: Juzet
(42.9779°N, 0.7597°E)
Time: 08:45:08
(UTC+00:00)

Cosmos 1954 Rocket - Pass Details

Date: 14 July 2020
Orbit: 751 x 782 km, 74.0° (Epoch: 04 August)

Event Time Altitude Azimuth Distance (km) Brightness Sun altitude
Exits shadow 02:08:18 35° 190° (S) 1,218 4.5 -19.2°
Maximum altitude 02:10:33 80° 108° (ESE) 790 4.0 -19.0°
Drops below altitude 10° 02:15:52 10° 22° (NNE) 2,338 7.7 -18.5°
Sets 02:18:16 0° 22° (NNE) 3,273 8.8 -18.3°
